[[{"header":{"parameterUnit":"m.s-1","parameterCategory":1,"la1":30.2991,"la2":30.254,"lo1":-89.0895,"lo2":-89.0444,"dy":0.0017,"dx":0.0017,"nx":28,"ny":28,"refTime":"2023-09-21T03:00:00:Z","depth":0,"parameterNumber":2,"parameterNumberName":"U-component_of_WINDS"},"data":[0,0,0,0,0,0,0,0,0,0,0,0,0,0,0,0,0,0,0,0,0,0,0,0,0,0,0,0,0,0,0,0,0,0,0,0,0,0,0,0,0,0,0,0,0,0,0,0,0,0,0,0,0,0,0,0,0,0,-8.3329,-8.3328,0,-8.3245,-8.3244,-8.3243,-8.2994,-8.2988,-8.2983,-8.2977,-8.2898,-8.2901,-8.2904,0,0,0,0,0,0,0,0,0,0,0,0,0,-8.3281,-8.3283,-8.3329,-8.3328,-8.3327,-8.3246,-8.3244,-8.3243,-8.2994,-8.2988,-8.2981,-8.2975,-8.2897,-8.2901,-8.2905,0,0,0,0,0,0,0,0,0,0,0,0,0,-8.326,-8.3284,-8.3329,-8.3193,-8.318,-8.3246,-8.3244,-8.3243,-8.2996,-8.2988,-8.2979,-8.2972,-8.2896,-8.2901,-8.2905,-8.3098,0,0,-8.2919,-8.2921,0,0,0,0,0,0,0,0,-8.3262,-8.3262,-8.3214,-8.3202,-8.3188,-8.3121,-8.3198,-8.3195,-8.2998,-8.3066,-8.2977,-8.2968,-8.298,-8.2977,-8.2979,-8.3095,-8.3091,-8.2919,-8.2922,-8.2924,-8.2925,0,0,0,0,0,0,0,-8.3263,-8.3265,-8.3296,-8.3214,-8.3198,-8.3138,-8.3126,-8.3196,-8.3071,-8.3059,-8.3041,-8.3034,-8.2971,-8.2976,-8.2976,-8.309,-8.2919,-8.2923,-8.2926,-8.2928,-8.3359,-8.3367,0,0,0,0,0,0,-8.3283,-8.3267,-8.3299,-8.3294,-8.3205,-8.3146,-8.3132,-8.3151,-8.3069,-8.3048,-8.3041,-8.3023,-8.2972,-8.2971,-8.2972,-8.319,-8.2924,-8.2928,-8.2931,-8.335,-8.3361,-8.337,0,0,0,0,0,0,-8.3283,-8.3289,-8.3302,-8.3275,-8.3272,-8.3155,-8.3179,-8.3154,-8.3158,-8.3055,-8.3032,-8.3069,-8.2965,-8.2966,-8.3068,-8.3184,-8.293,-8.2935,-8.334,-8.3353,-8.3366,-8.3631,0,0,0,0,0,0,-8.3283,-8.329,-8.336,-8.3279,-8.3275,-8.3398,-8.3186,-8.3158,-8.3166,-8.3141,-8.3075,-8.3056,-8.2959,-8.3063,-8.3073,-8.3186,-8.2938,-8.3329,-8.3346,-8.3361,-8.3611,-8.3652,-8.3686,0,0,0,0,0,-8.3282,-8.344,-8.3365,-8.337,-8.336,-8.3405,-8.3403,-8.3286,-8.3176,-8.3246,-8.3181,-8.3058,-8.3171,-8.3075,-8.3084,-8.3201,-8.3321,-8.3341,-8.336,-8.3594,-8.3644,-8.3685,0,0,0,0,0,0,-8.3541,-8.3427,-8.3342,-8.3478,-8.3453,-8.3363,-8.3448,-8.3343,-8.335,-8.3326,-8.3184,-8.3171,-8.3293,-8.3258,-8.3153,-8.3383,-8.3226,-8.3248,-8.3401,-8.3447,-8.3484,-8.3488,-8.2942,0,0,0,0,0,-8.3614,-8.3657,-8.3557,-8.3687,-8.3678,-8.3567,-8.3582,-8.3494,-8.3463,-8.3451,-8.3393,-8.3369,-8.3399,-8.3422,-8.3444,-8.3607,-8.3588,-8.3692,-8.3729,-8.3761,-8.378,-8.3863,-8.3907,-8.3435,-8.3435,-8.3434,0,0,-8.3764,-8.3708,-8.3744,-8.3737,-8.3707,-8.3757,-8.3559,-8.3621,-8.3656,-8.3461,-8.3552,-8.351,-8.3475,-8.3608,-8.3664,-8.3582,-8.3908,-8.3786,-8.3811,-8.3814,-8.3888,-8.3932,-8.3972,-8.3448,-8.3446,-8.3443,0,0,-8.4063,-8.4026,-8.4128,-8.4102,-8.4058,-8.3983,-8.4009,-8.3935,-8.3898,-8.3988,-8.3842,-8.3885,-8.394,-8.392,-8.3917,-8.4212,-8.4098,-8.4224,-8.4417,-8.4499,-8.4537,-8.4569,-8.4671,-8.471,-8.4245,-8.4245,-8.4246,0,-8.4256,-8.4323,-8.4195,-8.4265,-8.4267,-8.4091,-8.4195,-8.4177,-8.4145,-8.4151,-8.406,-8.4124,-8.4089,-8.4214,-8.4286,-8.4291,-8.4315,-8.4228,-8.4541,-8.4572,-8.4601,-8.4697,-8.4736,-8.4261,-8.4259,-8.4257,-8.4256,0,-8.4561,-8.4611,-8.47,-8.4669,-8.4681,-8.4769,-8.4656,-8.4684,-8.4598,-8.4533,-8.4627,-8.4579,-8.4587,-8.4611,-8.4528,-8.4726,-8.4676,-8.4567,-8.4404,-8.4663,-8.4751,-8.4787,-8.4282,-8.4277,-8.4272,-8.4269,0,0,-8.5017,-8.4915,-8.495,-8.4933,-8.4874,-8.491,-8.4992,-8.4997,-8.5024,-8.5009,-8.5073,-8.5125,-8.5022,-8.502,-8.4933,-8.5006,-8.524,-8.4886,-8.4883,-8.4951,-8.5453,-8.5533,-8.5578,-8.5167,-8.5173,-8.5179,-8.5455,0,-8.5297,-8.5424,-8.5313,-8.5463,-8.5506,-8.5342,-8.5413,-8.5385,-8.5329,-8.5359,-8.5298,-8.5335,-8.5199,-8.5196,-8.5261,-8.5198,-8.5338,-8.5177,-8.5224,-8.5228,-8.5233,-8.5624,-8.5708,-8.5971,-8.5489,-8.5494,-8.5499,0,-8.5639,-8.5636,-8.579,-8.5719,-8.5734,-8.5799,-8.5795,-8.5827,-8.5794,-8.5747,-8.5746,-8.564,-8.5716,-8.5561,-8.5664,-8.5557,-8.5571,-8.5544,-8.5551,-8.5548,-8.5376,-8.5628,-8.6052,-8.6091,-8.5552,-8.5548,-8.5544,0,-8.5951,-8.5988,-8.6083,-8.6075,-8.5997,-8.6046,-8.6016,-8.5974,-8.5985,-8.5984,-8.599,-8.6,-8.6004,-8.6015,-8.5916,-8.5812,-8.6032,-8.5869,-8.5995,-8.5998,-8.6044,-8.6042,-8.6474,-8.6062,-8.6061,-8.606,-8.606,0,-8.6272,-8.6372,-8.6222,-8.628,-8.6388,-8.6261,-8.6372,-8.6326,-8.6291,-8.6339,-8.6201,-8.625,-8.6117,-8.6153,-8.6077,-8.6173,-8.6178,-8.6142,-8.612,-8.6152,-8.6156,-8.6156,-8.6134,-8.6071,-8.6068,-8.6066,-8.6065,0,-8.6637,-8.6541,-8.6634,-8.6552,-8.6534,-8.6617,-8.6548,-8.66,-8.6535,-8.6598,-8.6606,-8.6505,-8.6541,-8.6443,-8.6465,-8.6413,-8.6552,-8.6502,-8.6562,-8.6545,-8.6675,-8.6663,-8.7118,-8.7171,-8.673,-8.6734,-8.6738,0,-8.6846,-8.6918,-8.6845,-8.6865,-8.6842,-8.6879,-8.6889,-8.6769,-8.6785,-8.6754,-8.681,-8.6834,-8.6845,-8.691,-8.684,-8.6856,-8.6803,-8.6962,-8.6805,-8.6835,-8.6802,-8.6797,-8.6803,-8.6993,-8.6999,-8.7003,-8.7007,0,-8.7227,-8.7175,-8.7193,-8.7196,-8.7211,-8.7207,-8.7195,-8.7221,-8.7093,-8.7119,-8.7152,-8.7161,-8.7182,-8.7207,-8.7208,-8.718,-8.7073,-8.7058,-8.7087,-8.7118,-8.7148,-8.713,-8.6646,-8.7046,-8.7042,-8.704,-8.7037,-8.7036,-8.7517,-8.7573,-8.7529,-8.7554,-8.7532,-8.7523,-8.7567,-8.7508,-8.7532,-8.7537,-8.7467,-8.7515,-8.7482,-8.7471,-8.7455,-8.7492,-8.7419,-8.7463,-8.7473,-8.7484,-8.7505,-8.7147,-8.7492,-8.7491,-8.749,-8.7489,-8.7488,0,-8.7886,-8.785,-8.7875,-8.786,-8.7881,-8.7778,-8.7759,-8.7783,-8.7826,-8.7803,-8.7817,-8.7856,-8.788,-8.7814,-8.7828,-8.7871,-8.7822,-8.7879,-8.7872,-8.7867,-8.757,-8.7541,-8.7917,-8.7917,-8.7917,-8.7917,-8.7917,-8.7917,-8.8081,-8.8169,-8.8114,-8.8191,-8.8154,-8.8198,-8.8196,-8.8188,-8.8168,-8.8217,-8.8235,-8.8191,-8.8151,-8.8162,-8.818,-8.816,-8.8171,-8.8244,-8.8207,-8.793,-8.7888,-8.7848,-8.782,-8.8248,-8.8249,-8.8499,-8.8502,-8.8504]},{"header":{"parameterUnit":"m.s-1","parameterCategory":1,"la1":30.2991,"la2":30.254,"lo1":-89.0895,"lo2":-89.0444,"dy":0.0017,"dx":0.0017,"nx":28,"ny":28,"refTime":"2023-09-21T03:00:00:Z","depth":0,"parameterNumber":3,"parameterNumberName":"V-component_of_WINDS"},"data":[0,0,0,0,0,0,0,0,0,0,0,0,0,0,0,0,0,0,0,0,0,0,0,0,0,0,0,0,0,0,0,0,0,0,0,0,0,0,0,0,0,0,0,0,0,0,0,0,0,0,0,0,0,0,0,0,0,0,-0.173,-0.1731,0,-0.1769,-0.177,-0.177,-0.1782,-0.1782,-0.1782,-0.1782,-0.1821,-0.1822,-0.1823,0,0,0,0,0,0,0,0,0,0,0,0,0,-0.1661,-0.1662,-0.173,-0.1731,-0.1731,-0.1769,-0.177,-0.177,-0.1782,-0.1782,-0.1782,-0.1782,-0.1821,-0.1822,-0.1823,0,0,0,0,0,0,0,0,0,0,0,0,0,-0.1695,-0.1663,-0.173,-0.1742,-0.1743,-0.1769,-0.177,-0.1771,-0.1782,-0.1782,-0.1782,-0.1781,-0.182,-0.1822,-0.1824,-0.1841,0,0,-0.1829,-0.183,0,0,0,0,0,0,0,0,-0.1693,-0.1697,-0.1739,-0.1741,-0.1742,-0.1771,-0.176,-0.1794,-0.1782,-0.1767,-0.1782,-0.1781,-0.1804,-0.1807,-0.1815,-0.1843,-0.1844,-0.1829,-0.1831,-0.1831,-0.1832,0,0,0,0,0,0,0,-0.1691,-0.1696,-0.1746,-0.174,-0.1742,-0.1744,-0.1748,-0.1767,-0.1787,-0.1769,-0.177,-0.1774,-0.1805,-0.1814,-0.1816,-0.1845,-0.1829,-0.1831,-0.1832,-0.1833,-0.1885,-0.1885,0,0,0,0,0,0,-0.1687,-0.1694,-0.1744,-0.1747,-0.1717,-0.1745,-0.175,-0.1762,-0.1787,-0.179,-0.1774,-0.1775,-0.1811,-0.1814,-0.1818,-0.1838,-0.1831,-0.1833,-0.1834,-0.1884,-0.1885,-0.1885,0,0,0,0,0,0,-0.1685,-0.1691,-0.1743,-0.1721,-0.1727,-0.1747,-0.176,-0.1763,-0.1772,-0.1791,-0.1795,-0.178,-0.1811,-0.1815,-0.1834,-0.184,-0.1834,-0.1836,-0.1884,-0.1885,-0.1885,-0.188,0,0,0,0,0,0,-0.1683,-0.1691,-0.1699,-0.1721,-0.1728,-0.176,-0.176,-0.1764,-0.1775,-0.1775,-0.1797,-0.18,-0.1811,-0.1832,-0.1836,-0.1842,-0.1837,-0.1884,-0.1884,-0.1885,-0.188,-0.188,-0.188,0,0,0,0,0,-0.1681,-0.1696,-0.1699,-0.1705,-0.1739,-0.176,-0.1765,-0.1777,-0.1775,-0.1783,-0.1794,-0.18,-0.1838,-0.1833,-0.1839,-0.1845,-0.1884,-0.1884,-0.1885,-0.1879,-0.188,-0.188,0,0,0,0,0,0,-0.1675,-0.1699,-0.1703,-0.1726,-0.1741,-0.1762,-0.1773,-0.1777,-0.1793,-0.1793,-0.1806,-0.1811,-0.1829,-0.1839,-0.1833,-0.1861,-0.1861,-0.1862,-0.1855,-0.1855,-0.1856,-0.1853,-0.1839,0,0,0,0,0,-0.1676,-0.1692,-0.1712,-0.1731,-0.1738,-0.1753,-0.1763,-0.1771,-0.1787,-0.1793,-0.1807,-0.1821,-0.1836,-0.1846,-0.1861,-0.188,-0.1884,-0.1887,-0.1887,-0.1887,-0.1889,-0.1897,-0.1898,-0.1887,-0.1887,-0.1887,0,0,-0.168,-0.1695,-0.1704,-0.173,-0.1742,-0.1757,-0.1759,-0.1776,-0.1786,-0.1796,-0.1814,-0.1824,-0.1841,-0.1859,-0.1868,-0.1868,-0.1892,-0.1888,-0.1888,-0.189,-0.1898,-0.1899,-0.19,-0.1887,-0.1887,-0.1887,0,0,-0.1693,-0.1707,-0.1723,-0.1734,-0.1752,-0.1762,-0.1765,-0.1785,-0.1792,-0.1811,-0.1817,-0.1829,-0.1855,-0.1866,-0.1875,-0.1888,-0.1893,-0.1892,-0.1895,-0.1902,-0.1903,-0.1904,-0.1907,-0.1909,-0.1894,-0.1894,-0.1894,0,-0.1696,-0.1719,-0.173,-0.1745,-0.1755,-0.1763,-0.1778,-0.1788,-0.181,-0.1816,-0.1816,-0.1847,-0.1859,-0.1879,-0.1881,-0.1889,-0.1892,-0.1891,-0.1902,-0.1903,-0.1904,-0.1907,-0.1909,-0.1893,-0.1893,-0.1893,-0.1893,0,-0.172,-0.1735,-0.1746,-0.1766,-0.1777,-0.1792,-0.1803,-0.1813,-0.1818,-0.1827,-0.1844,-0.1858,-0.1875,-0.1879,-0.1885,-0.1899,-0.1898,-0.19,-0.19,-0.1905,-0.1908,-0.191,-0.1893,-0.1893,-0.1893,-0.1893,0,0,-0.1735,-0.1758,-0.1761,-0.1769,-0.1787,-0.1799,-0.1813,-0.1829,-0.1836,-0.1849,-0.186,-0.188,-0.1881,-0.1891,-0.1897,-0.1904,-0.1911,-0.1904,-0.1905,-0.1904,-0.1925,-0.1924,-0.1925,-0.1913,-0.1913,-0.1914,-0.1923,0,-0.1751,-0.1777,-0.1785,-0.1806,-0.1819,-0.1824,-0.1835,-0.1847,-0.1854,-0.1865,-0.1873,-0.1887,-0.1887,-0.1893,-0.1899,-0.1909,-0.1915,-0.1908,-0.1922,-0.1923,-0.1919,-0.1927,-0.1927,-0.1936,-0.1924,-0.1925,-0.1925,0,-0.1774,-0.1787,-0.1809,-0.1822,-0.1828,-0.1838,-0.1852,-0.1863,-0.1874,-0.1879,-0.1888,-0.1893,-0.1906,-0.1903,-0.1919,-0.1914,-0.192,-0.1924,-0.1925,-0.1928,-0.1925,-0.193,-0.1939,-0.194,-0.1927,-0.1927,-0.1927,0,-0.1782,-0.1804,-0.1819,-0.1826,-0.1842,-0.1849,-0.1856,-0.1867,-0.1875,-0.1886,-0.1891,-0.1903,-0.191,-0.1919,-0.1926,-0.1924,-0.1941,-0.1939,-0.1944,-0.1944,-0.1949,-0.1949,-0.1959,-0.1952,-0.1952,-0.1952,-0.1952,0,-0.1799,-0.1812,-0.1823,-0.1832,-0.1846,-0.1853,-0.1866,-0.1873,-0.1883,-0.1892,-0.1897,-0.1906,-0.1914,-0.1924,-0.1929,-0.1941,-0.1944,-0.1947,-0.1948,-0.1947,-0.1946,-0.1952,-0.1952,-0.1952,-0.1952,-0.1952,-0.1952,0,-0.1811,-0.1819,-0.1836,-0.1848,-0.1852,-0.1861,-0.1871,-0.188,-0.1885,-0.1897,-0.1901,-0.191,-0.1921,-0.1928,-0.1943,-0.1946,-0.1958,-0.1959,-0.1954,-0.1955,-0.1959,-0.1959,-0.1974,-0.1976,-0.1967,-0.1967,-0.1967,0,-0.1823,-0.1832,-0.1845,-0.1851,-0.1858,-0.1869,-0.1876,-0.1882,-0.1889,-0.1901,-0.1908,-0.1918,-0.1928,-0.1944,-0.1952,-0.1962,-0.1963,-0.1968,-0.1965,-0.1962,-0.1963,-0.1962,-0.1962,-0.1969,-0.1969,-0.1969,-0.1969,0,-0.1841,-0.1843,-0.1854,-0.1864,-0.1872,-0.1881,-0.189,-0.1895,-0.1902,-0.1909,-0.192,-0.1927,-0.194,-0.195,-0.196,-0.1966,-0.1968,-0.1969,-0.1971,-0.197,-0.1966,-0.1967,-0.1956,-0.1969,-0.1969,-0.1969,-0.1969,-0.1969,-0.1853,-0.1861,-0.187,-0.188,-0.1887,-0.1894,-0.1902,-0.1907,-0.1916,-0.1927,-0.193,-0.194,-0.1948,-0.1961,-0.1967,-0.1974,-0.1974,-0.1976,-0.1977,-0.1978,-0.1977,-0.1964,-0.1976,-0.1976,-0.1976,-0.1976,-0.1976,0,-0.1871,-0.1876,-0.1886,-0.1897,-0.1904,-0.1904,-0.1912,-0.1919,-0.1928,-0.1935,-0.1943,-0.1953,-0.1962,-0.1968,-0.1977,-0.1981,-0.1982,-0.1983,-0.1984,-0.1984,-0.1978,-0.1975,-0.1982,-0.1982,-0.1982,-0.1982,-0.1982,-0.1982,-0.1882,-0.1894,-0.1897,-0.1911,-0.1916,-0.1926,-0.1931,-0.1936,-0.1942,-0.1953,-0.196,-0.1964,-0.197,-0.1978,-0.1985,-0.1987,-0.199,-0.199,-0.1992,-0.1986,-0.1985,-0.1985,-0.1982,-0.1991,-0.1991,-0.1998,-0.1998,-0.1998]}]]